Location: Unspecified
(42.3650°N, 71.1030°W)
Time: 21:47:37
(UTC+00:00)

CZ-4B R/B - Pass Details

Date: 02 March 2024
Orbit: 464 x 621 km, 97.9° (Epoch: 15 April)

Event Time Altitude Azimuth Distance (km) Brightness Sun altitude
Rises 22:51:34 0° 137° (SE) 2,845 6.1 -3.7°
Reaches altitude 10° 22:53:57 10° 125° (SE) 1,965 5.2 -4.1°
Maximum altitude 22:57:34 27° 68° (ENE) 1,199 4.0 -4.8°
Drops below altitude 10° 23:01:16 10° 10° (N) 2,010 5.5 -5.4°
Sets 23:03:39 0° 359° (N) 2,898 6.5 -5.9°
